weather.gov     
National Weather Service

Hourly Weather Roundup
NWS Homepage
This page is being discontinued on March 12, 2014.
The same data is available at this site. Please update your bookmarks.
Thank you, and we apologize for the inconvenience.
Please send an email to SR-SRH.Webmaster@noaa.gov with any concerns.


Current Version
Previous Version:    01  02  03  04  05  06  07  08  09  10  11  12  13  14  15  16  17  18  19  20  21  22  23  24  25  26  27  28  29  30  
   31  32  33  34  35  36  37  38  39  40  41  42  43  44  45  46  47  48  49  50  51  52  53  54  55  56  57  58  59  60  
[Printable]
875
NZUS43 KILX 011410
HWRILX

AREA WEATHER ROUNDUP
NATIONAL WEATHER SERVICE, LINCOLN IL
800 AM CST SUN FEB 01 2015


CITY           SKY/WX    TMP DP  RH WIND       PRES   REMARKS
BLOOMINGTON    SNOW      33  33 100 SE12      29.82F VSB 1/2 WCI  24
CHAMPAIGN      LGT SNOW  32  31  96 E18       29.83F VSB 3/4 WCI  20
DECATUR        SNOW      33  32  96 SE12      29.81F VSB 1/4 WCI  24
FLORA          RAIN      34  33  96 E5        29.84F WCI  30
GALESBURG      LGT SNOW  32  32 100 E6        29.79F VSB 3/4 WCI  26
JACKSONVILLE   LGT SNOW  35  33  94 SE7       29.77F VSB 1   WCI  29
LACON          LGT SNOW  32  31  98 E5        29.84S VSB 3/4 WCI  27
LAWRENCEVILLE  RAIN      35  32  88 E9        29.87F FOG     WCI  28
LITCHFIELD     MIX PCPN  33  31  94 SE13      29.78S WCI  23
$$


CITY           SKY/WX    TMP DP  RH WIND       PRES   REMARKS
LINCOLN        LGT SNOW  34  33  96 SE6       29.82F VSB 3/4 WCI  29
MACOMB         CLOUDY    32  32 100 E6        29.80F WCI  26
MATTOON        LGT SNOW  32  30  92 SE15      29.81F FOG     WCI  22
MT CARMEL AP   RAIN      37  32  81 E3        29.86F
OLNEY-NOBLE AP RAIN      34  32  93 CALM      29.86F
PARIS          LGT SNOW  32  32  99 E7        29.87F WCI  26
PEORIA         SNOW      34  32  92 E8        29.82F VSB 1/2 WCI  27
PONTIAC        LGT SNOW  33  33  99 E13       29.85F VSB 3/4 WCI  24
RANTOUL        SNOW      34  33  96 E12       29.84F VSB 1/2 WCI  25
ROBINSON       LGT SNOW  33  31  94 E6        29.89F WCI  28
SPRINGFIELD    LGT SNOW  34  32  92 SE7       29.79F VSB 1   WCI  28
TAYLORVILLE    LGT SNOW  32  32 100 SE10      29.79F WCI  24
$$

...REGIONAL REPORTS...


CITY           SKY/WX    TMP DP  RH WIND       PRES   REMARKS
CHICAGO O`HARE SNOW      30  29  96 NE15      29.93F VSB 1/2 WCI  19
KANKAKEE       LGT SNOW  33  32  99 E9        29.89F WCI  25
MOLINE         SNOW      32  30  92 NE16      29.84S VSB 1/2 WCI  21
MOUNT VERNON   CLOUDY    36  30  80 NE3       29.83F
PITTSFIELD     MIX PCPN  33  32  96 SE3       29.76F
QUINCY         LGT SNOW  33  32  96 SE6       29.74F FOG     WCI  28
ROCKFORD       SNOW      27  23  85 NE21G31   29.95F VSB 1/2 WCI  13
$$


CITY           SKY/WX    TMP DP  RH WIND       PRES   REMARKS
BURLINGTON     LGT SNOW  32  32 100 E8        29.77F VSB 3/4 WCI  25
CEDAR RAPIDS   LGT SNOW  28  27  96 NE25G32   29.83F VSB 1   WCI  13
DES MOINES     LGT SNOW  33  30  88 NE12      29.79S VSB 3/4 WCI  24
KIRKSVILLE     SNOW      33  33 100 E3        29.73F VSB 1/2
OTTUMWA        LGT SNOW  32  32 100 NE12      29.77S FOG     WCI  23
ST LOUIS       LGT RAIN  37  34  87 SE9       29.78F FOG     WCI  31
$$


CITY           SKY/WX    TMP DP  RH WIND       PRES   REMARKS
TERRE HAUTE    LGT SNOW  33  30  88 SE7       29.89F FOG     WCI  27
EVANSVILLE     LGT RAIN  43  30  60 S8        29.86F
INDIANAPOLIS   CLOUDY    32  27  81 SE12      29.92F WCI  23
LAFAYETTE      CLOUDY    33  31  92 SE6       29.92F FOG     WCI  28
MADISON        SNOW      15  11  83 NE17      30.06R VSB 1/2 WCI  -1
MILWAUKEE      SNOW      24  20  84 NE26G32   30.06F VSB 1/4 WCI   8
$$






U.S. Dept. of Commerce
NOAA National Weather Service
1325 East West Highway
Silver Spring, MD 20910
E-mail: w-nws.webmaster@noaa.gov
Page last modified: May 16, 2007
NATIONAL WEATHER SERVICE: for Safety, for Work, for Fun - FOR LIFE